Location: Patterson (historical)
(35.1418°N, 90.5529°W)
Time: 17:48:11
(UTC+00:00)

BREEZE-M DEB (TANK) - Pass Details

Date: 11 December 2025
Orbit: 357 x 16125 km, 49.4° (Epoch: 17 January)

Event Time Altitude Azimuth Distance (km) Brightness Sun altitude
Rises 12:11:15 0° 228° (SW) 2,780 5.6 -10.0°
Reaches altitude 10° 12:12:38 10° 227° (SW) 2,173 5.1 -9.8°
Maximum altitude 12:17:06 86° 139° (SE) 1,293 4.2 -8.9°
Drops below altitude 10° 12:35:56 10° 53° (NE) 8,216 8.7 -5.4°
Sets 12:48:45 0° 55° (NE) 12,101 9.5 -3.0°
